GW3602 Weather Reports


Display with metric or nautical units.
time (UTC)temp
F
wind
direction
speed
MPH
gust
MPH
rain 1hr
in
rain 24hr
in
rain mn
in
humidity
%
barometer
mb
20260507073026 41 108 0.0 3.0 0.00 0.17 0.00 79 1012.7
20260507071513 41 127 0.0 4.0 0.00 0.20 0.00 79 1012.7
20260507070017 41 119 1.0 4.0 0.00 0.21 0.00 80 1012.9
20260507064523 42 97 0.0 3.0 0.00 0.22 0.00 79 1013.1
20260507063029 42 91 1.0 3.0 0.00 0.23 0.00 79 1013.1
20260507061529 42 108 1.0 3.0 0.00 0.26 0.00 79 1013.3
20260507060014 42 84 1.0 3.0 0.00 0.29 0.00 78 1013.4
20260507054521 42 108 0.0 3.0 0.00 0.33 0.00 79 1013.6
20260507053023 42 105 0.0 0.0 0.00 0.34 0.00 79 1013.5
20260507051510 42 104 0.0 0.0 0.00 0.35 0.00 78 1013.8
20260507050013 43 118 0.0 2.0 0.00 0.37 0.00 76 1013.9
20260507044516 44 115 0.0 1.0 0.00 0.38 0.00 76 1013.9
20260507043033 44 101 0.0 2.0 0.00 0.39 0.00 76 1013.9
20260507041506 44 109 0.0 2.0 0.00 0.41 0.00 77 1014.1
20260507040008 43 112 0.0 1.0 0.00 0.44 0.00 77 1014.2
20260507034515 43 115 0.0 0.0 0.00 0.46 0.44 77 1014.3
20260507033020 43 115 0.0 1.0 0.00 0.48 0.44 77 1014.5
20260507031523 43 115 0.0 0.0 0.00 0.49 0.44 76 1014.5
20260507030006 44 115 0.0 1.0 0.00 0.52 0.44 75 1014.4
20260507024510 44 115 0.0 0.0 0.00 0.55 0.44 73 1014.2
20260507023013 45 115 0.0 1.0 0.00 0.58 0.44 72 1014.1
20260507021521 45 115 0.0 1.0 0.00 0.64 0.44 71 1014.2
20260507020024 46 116 0.0 1.0 0.00 0.68 0.44 70 1014.2
20260507014508 46 43 0.0 2.0 0.00 0.74 0.44 70 1013.9
20260507013012 46 75 0.0 2.0 0.00 0.82 0.44 69 1013.8
20260507011533 46 37 0.0 1.0 0.00 0.89 0.44 68 1013.7
20260507010020 46 354 0.0 1.0 0.00 0.94 0.44 68 1013.6
20260507004526 47 106 0.0 1.0 0.00 0.97 0.44 66 1013.4
20260507003012 47 106 0.0 1.0 0.00 0.97 0.44 65 1013.4
20260507001512 47 351 0.0 1.0 0.00 0.98 0.44 64 1013.3
20260507000020 47 351 0.0 1.0 0.00 0.98 0.44 63 1013.4
20260506234530 48 350 0.0 1.0 0.00 1.03 0.44 62 1013.4
20260506233025 48 69 0.0 3.0 0.00 1.07 0.44 62 1013.3
20260506231526 48 108 0.0 3.0 0.00 1.14 0.44 61 1013.1
20260506230014 49 307 0.0 2.0 0.00 1.21 0.44 62 1013.2
20260506224527 49 295 0.0 6.0 0.00 1.23 0.44 61 1013.1
20260506223025 49 286 1.0 7.0 0.00 1.24 0.44 60 1013.1
20260506221526 49 294 2.0 6.0 0.00 1.24 0.44 59 1012.9
20260506220026 49 293 1.0 5.0 0.00 1.26 0.44 59 1012.8
20260506214516 50 307 3.0 6.0 0.00 1.27 0.44 57 1012.6
20260506213023 50 326 1.0 7.0 0.00 1.29 0.44 57 1012.4
20260506211506 50 323 4.0 7.0 0.00 1.43 0.44 55 1012.5
20260506210007 51 331 2.0 6.0 0.00 1.46 0.44 57 1012.4
20260506204515 51 265 3.0 6.0 0.00 1.48 0.44 56 1012.5
20260506203016 51 307 3.0 8.0 0.00 1.53 0.44 53 1012.3
20260506201503 51 270 4.0 9.0 0.00 1.54 0.44 53 1012.3
20260506200011 51 301 3.0 9.0 0.00 1.54 0.44 50 1012.5
20260506194513 52 277 3.0 11.0 0.00 1.54 0.44 48 1012.3
20260506193014 53 314 4.0 10.0 0.00 1.54 0.44 53 1012.3
20260506191518 53 313 3.0 9.0 0.00 1.55 0.44 52 1012.4
20260506190007 53 307 6.0 12.0 0.00 1.56 0.44 55 1012.5
20260506184509 53 306 5.0 12.0 0.00 1.56 0.44 56 1012.5
20260506183014 53 301 5.0 11.0 0.00 1.56 0.44 60 1012.5
20260506181518 52 266 6.0 10.0 0.00 1.56 0.44 58 1012.2
20260506180021 52 320 4.0 9.0 0.00 1.56 0.44 62 1012.5
20260506174519 52 311 4.0 10.0 0.00 1.56 0.44 64 1012.1
20260506173012 52 285 5.0 11.0 0.00 1.56 0.44 62 1012.1
20260506171517 52 321 5.0 12.0 0.00 1.56 0.44 64 1012.4
20260506170021 52 270 5.0 9.0 0.00 1.56 0.44 68 1012.1
20260506164524 51 295 5.0 11.0 0.00 1.56 0.44 69 1012.0
20260506163038 51 261 5.0 13.0 0.00 1.56 0.44 68 1011.7
20260506161515 52 288 5.0 11.0 0.00 1.56 0.44 68 1011.7
20260506160017 52 262 4.0 10.0 0.00 1.56 0.44 68 1011.7
20260506154531 51 283 5.0 9.0 0.00 1.56 0.44 69 1011.3
20260506153029 50 317 5.0 12.0 0.00 1.56 0.44 72 1011.0
20260506151531 51 294 4.0 8.0 0.00 1.56 0.44 72 1010.7
20260506150015 50 301 5.0 10.0 0.00 1.56 0.44 71 1010.7
20260506144518 50 289 1.0 8.0 0.00 1.56 0.44 76 1010.6
20260506143021 48 276 1.0 8.0 0.00 1.56 0.44 75 1010.3
20260506141527 48 258 2.0 11.0 0.00 1.56 0.44 77 1010.4
20260506140033 47 266 2.0 6.0 0.00 1.56 0.44 83 1010.2
20260506134516 47 293 3.0 6.0 0.00 1.56 0.44 85 1010.4
20260506133018 46 290 3.0 5.0 0.00 1.56 0.44 86 1010.2
20260506131531 46 269 2.0 8.0 0.00 1.56 0.44 87 1009.8
20260506130026 46 281 2.0 6.0 0.00 1.56 0.44 88 1009.7
20260506124527 45 293 2.0 5.0 0.00 1.56 0.44 91 1009.5
20260506123020 45 323 0.0 5.0 0.00 1.56 0.44 91 1009.6
20260506121503 44 311 1.0 4.0 0.00 1.56 0.44 91 1009.5
20260506120011 44 286 1.0 3.0 0.00 1.56 0.44 91 1009.3
20260506114510 44 282 1.0 2.0 0.00 1.56 0.44 91 1009.2
20260506113018 44 293 1.0 4.0 0.00 1.56 0.44 91 1008.8
20260506111527 44 286 1.0 5.0 0.00 1.56 0.44 91 1008.7
20260506110025 44 311 0.0 5.0 0.00 1.56 0.44 92 1008.3
20260506104508 45 293 2.0 6.0 0.01 1.56 0.44 92 1008.2
20260506103014 45 304 0.0 1.0 0.03 1.56 0.44 92 1007.9
20260506101517 45 63 0.0 1.0 0.06 1.56 0.44 92 1007.4
20260506100022 45 352 0.0 2.0 0.07 1.56 0.44 92 1008.0
20260506094524 44 300 0.0 2.0 0.07 1.55 0.43 92 1008.3
20260506093010 44 285 0.0 1.0 0.06 1.53 0.41 92 1008.4
20260506091516 44 286 0.0 1.0 0.06 1.50 0.38 91 1008.2
20260506090023 44 294 0.0 1.0 0.07 1.49 0.37 91 1008.0
20260506084535 44 347 0.0 2.0 0.08 1.48 0.36 91 1007.7
20260506083031 44 350 0.0 2.0 0.08 1.47 0.35 91 1008.0
20260506081509 44 322 1.0 3.0 0.08 1.44 0.32 91 1008.5